[[{"header":{"parameterUnit":"m.s-1","parameterCategory":1,"la1":30.2991,"la2":30.254,"lo1":-89.0895,"lo2":-89.0444,"dy":0.0017,"dx":0.0017,"nx":28,"ny":28,"refTime":"2023-03-18T21:00:00:Z","depth":0,"parameterNumber":2,"parameterNumberName":"U-component_of_WINDS"},"data":[0,0,0,0,0,0,0,0,0,0,0,0,0,0,0,0,0,0,0,0,0,0,0,0,0,0,0,0,0,0,0,0,0,0,0,0,0,0,0,0,0,0,0,0,0,0,0,0,0,0,0,0,0,0,0,0,0,0,1.3103,1.3103,0,1.3094,1.3094,1.3094,1.3096,1.3096,1.3096,1.3096,1.3085,1.3085,1.3084,0,0,0,0,0,0,0,0,0,0,0,0,0,1.3122,1.3121,1.3103,1.3103,1.3103,1.3094,1.3094,1.3094,1.3096,1.3096,1.3096,1.3096,1.3085,1.3085,1.3084,0,0,0,0,0,0,0,0,0,0,0,0,0,1.3113,1.3121,1.3103,1.3103,1.3103,1.3094,1.3094,1.3094,1.3096,1.3096,1.3096,1.3096,1.3086,1.3085,1.3084,1.3075,0,0,1.3082,1.3082,0,0,0,0,0,0,0,0,1.3114,1.3113,1.3103,1.3103,1.3103,1.3096,1.3097,1.3088,1.3096,1.3098,1.3096,1.3096,1.3089,1.3088,1.3085,1.3075,1.3074,1.3082,1.3082,1.3081,1.3081,0,0,0,0,0,0,0,1.3114,1.3113,1.31,1.3103,1.3103,1.3103,1.3102,1.3095,1.3092,1.3098,1.3098,1.3097,1.3089,1.3086,1.3085,1.3074,1.3082,1.3082,1.3081,1.3081,1.3057,1.3056,0,0,0,0,0,0,1.3115,1.3113,1.31,1.31,1.3109,1.3103,1.3101,1.3098,1.3092,1.3092,1.3097,1.3097,1.3087,1.3086,1.3085,1.3074,1.3081,1.3081,1.308,1.3057,1.3056,1.3056,0,0,0,0,0,0,1.3116,1.3114,1.31,1.3107,1.3105,1.3102,1.3098,1.3098,1.3095,1.3091,1.3091,1.3095,1.3087,1.3086,1.3078,1.3074,1.3081,1.308,1.3057,1.3057,1.3056,1.3053,0,0,0,0,0,0,1.3116,1.3114,1.3111,1.3106,1.3105,1.3094,1.3098,1.3098,1.3094,1.3095,1.3089,1.3089,1.3087,1.3079,1.3077,1.3073,1.3079,1.3057,1.3057,1.3056,1.3053,1.3053,1.3052,0,0,0,0,0,1.3117,1.3109,1.311,1.3109,1.31,1.3094,1.3092,1.3091,1.3094,1.3091,1.3088,1.3089,1.3075,1.3078,1.3076,1.3072,1.3058,1.3057,1.3056,1.3054,1.3053,1.3052,0,0,0,0,0,0,1.3112,1.3109,1.311,1.3101,1.3098,1.3094,1.3089,1.309,1.3085,1.3086,1.3085,1.3083,1.3076,1.3073,1.3077,1.3063,1.3067,1.3066,1.3065,1.3064,1.3063,1.3064,1.3079,0,0,0,0,0,1.311,1.3106,1.3103,1.3095,1.3094,1.3092,1.3089,1.3089,1.3085,1.3083,1.308,1.3076,1.3071,1.3068,1.3062,1.3053,1.3052,1.305,1.3049,1.3048,1.3047,1.3043,1.3042,1.3054,1.3054,1.3054,0,0,1.3106,1.3104,1.3101,1.3094,1.3092,1.3087,1.3091,1.3085,1.3081,1.3082,1.3075,1.3073,1.3068,1.306,1.3056,1.3058,1.3044,1.3047,1.3047,1.3046,1.3042,1.3041,1.304,1.3054,1.3054,1.3054,0,0,1.3096,1.3093,1.3087,1.3085,1.3081,1.3081,1.3079,1.3076,1.3074,1.3067,1.3068,1.3064,1.3055,1.3052,1.3049,1.304,1.304,1.3038,1.3033,1.3029,1.3028,1.3027,1.3024,1.3023,1.3037,1.3037,1.3037,0,1.3091,1.3083,1.3084,1.3079,1.3076,1.3078,1.3072,1.3069,1.3064,1.3062,1.3064,1.3054,1.3051,1.3042,1.304,1.3038,1.3036,1.3038,1.3029,1.3028,1.3027,1.3024,1.3023,1.3037,1.3037,1.3037,1.3037,0,1.3078,1.3073,1.3068,1.3064,1.3061,1.3055,1.3055,1.3052,1.3053,1.3051,1.3045,1.3042,1.3036,1.3034,1.3034,1.3026,1.3027,1.3029,1.3032,1.3025,1.3023,1.3021,1.3037,1.3037,1.3037,1.3037,0,0,1.3063,1.306,1.3058,1.3057,1.3054,1.305,1.3045,1.3041,1.3038,1.3035,1.303,1.3024,1.3026,1.3023,1.3023,1.3019,1.3012,1.3021,1.3021,1.302,1.3004,1.3002,1.3001,1.3013,1.3013,1.3013,1.3004,0,1.3052,1.3043,1.3044,1.3035,1.3031,1.3034,1.303,1.3027,1.3027,1.3023,1.3022,1.3017,1.302,1.3019,1.3015,1.3014,1.3009,1.3014,1.3009,1.3008,1.3009,1.2999,1.2997,1.2989,1.3003,1.3003,1.3002,0,1.3038,1.3035,1.3026,1.3025,1.3024,1.3019,1.3016,1.3013,1.3011,1.301,1.3008,1.3009,1.3004,1.3008,1.3001,1.3005,1.3003,1.3002,1.3001,1.3,1.3005,1.2997,1.2986,1.2985,1.3001,1.3001,1.3001,0,1.3028,1.3022,1.3016,1.3015,1.3014,1.3011,1.301,1.3008,1.3006,1.3003,1.3002,1.2998,1.2996,1.2993,1.2993,1.2996,1.2987,1.299,1.2986,1.2986,1.2983,1.2983,1.2971,1.2983,1.2983,1.2983,1.2983,0,1.3015,1.301,1.3012,1.3008,1.3003,1.3004,1.2998,1.2998,1.2997,1.2993,1.2995,1.2992,1.2992,1.2989,1.2989,1.2984,1.2983,1.2982,1.2982,1.2982,1.2982,1.298,1.298,1.2982,1.2982,1.2982,1.2983,0,1.3003,1.3004,1.2998,1.2998,1.2998,1.2993,1.2993,1.299,1.299,1.2985,1.2985,1.2985,1.2981,1.2981,1.2977,1.2977,1.297,1.2971,1.2971,1.2971,1.2967,1.2967,1.2953,1.2951,1.2964,1.2963,1.2963,0,1.2994,1.2991,1.299,1.2989,1.2988,1.2985,1.2983,1.2985,1.2983,1.2981,1.2978,1.2975,1.2972,1.2966,1.2966,1.2962,1.2963,1.2958,1.2962,1.2962,1.2963,1.2963,1.2963,1.2957,1.2957,1.2957,1.2957,0,1.298,1.2981,1.2978,1.2977,1.2975,1.2973,1.2972,1.297,1.2972,1.2969,1.2966,1.2964,1.2961,1.2957,1.2955,1.2954,1.2956,1.2956,1.2955,1.2954,1.2954,1.2954,1.2968,1.2956,1.2956,1.2956,1.2956,1.2956,1.2969,1.2966,1.2966,1.2963,1.2963,1.2962,1.2959,1.296,1.2957,1.2955,1.2956,1.2952,1.2951,1.2948,1.2947,1.2944,1.2946,1.2944,1.2944,1.2943,1.2943,1.2955,1.2944,1.2944,1.2944,1.2944,1.2944,0,1.2954,1.2955,1.2952,1.2951,1.2949,1.2952,1.2951,1.2949,1.2947,1.2946,1.2944,1.2941,1.2938,1.2938,1.2936,1.2933,1.2934,1.2933,1.2933,1.2932,1.2941,1.2943,1.2932,1.2932,1.2932,1.2932,1.2932,1.2932,1.2946,1.2942,1.2943,1.2938,1.2939,1.2936,1.2935,1.2934,1.2934,1.2931,1.2929,1.2929,1.2929,1.2927,1.2925,1.2925,1.2924,1.2922,1.2922,1.2931,1.2932,1.2933,1.2934,1.2922,1.2922,1.2914,1.2914,1.2914]},{"header":{"parameterUnit":"m.s-1","parameterCategory":1,"la1":30.2991,"la2":30.254,"lo1":-89.0895,"lo2":-89.0444,"dy":0.0017,"dx":0.0017,"nx":28,"ny":28,"refTime":"2023-03-18T21:00:00:Z","depth":0,"parameterNumber":3,"parameterNumberName":"V-component_of_WINDS"},"data":[0,0,0,0,0,0,0,0,0,0,0,0,0,0,0,0,0,0,0,0,0,0,0,0,0,0,0,0,0,0,0,0,0,0,0,0,0,0,0,0,0,0,0,0,0,0,0,0,0,0,0,0,0,0,0,0,0,0,-6.2606,-6.2607,0,-6.2669,-6.267,-6.2671,-6.2647,-6.2646,-6.2644,-6.2643,-6.2703,-6.2706,-6.2709,0,0,0,0,0,0,0,0,0,0,0,0,0,-6.2462,-6.2465,-6.2606,-6.2607,-6.2608,-6.2669,-6.267,-6.2671,-6.2647,-6.2646,-6.2644,-6.2642,-6.2702,-6.2705,-6.2709,0,0,0,0,0,0,0,0,0,0,0,0,0,-6.2525,-6.2466,-6.2606,-6.2603,-6.2604,-6.2669,-6.267,-6.2671,-6.2648,-6.2646,-6.2644,-6.2642,-6.2701,-6.2705,-6.2709,-6.2779,0,0,-6.2723,-6.2725,0,0,0,0,0,0,0,0,-6.2521,-6.253,-6.2603,-6.2604,-6.2604,-6.2648,-6.2641,-6.2707,-6.2648,-6.2631,-6.2643,-6.2641,-6.2686,-6.2692,-6.2708,-6.2782,-6.2784,-6.2723,-6.2726,-6.2728,-6.2729,0,0,0,0,0,0,0,-6.2517,-6.2527,-6.2631,-6.2604,-6.2605,-6.2598,-6.2605,-6.2653,-6.267,-6.2632,-6.2631,-6.2639,-6.2686,-6.2704,-6.2709,-6.2785,-6.2723,-6.2727,-6.273,-6.2731,-6.2922,-6.2924,0,0,0,0,0,0,-6.2513,-6.2524,-6.2629,-6.2633,-6.2557,-6.2603,-6.261,-6.2636,-6.2669,-6.2672,-6.2641,-6.2638,-6.2697,-6.2704,-6.2711,-6.2796,-6.2728,-6.2732,-6.2734,-6.2919,-6.2922,-6.2925,0,0,0,0,0,0,-6.251,-6.2522,-6.2626,-6.2578,-6.2591,-6.2607,-6.2637,-6.2639,-6.2656,-6.2675,-6.2678,-6.2656,-6.2696,-6.2705,-6.2763,-6.2798,-6.2734,-6.2738,-6.2916,-6.292,-6.2923,-6.2967,0,0,0,0,0,0,-6.2506,-6.2521,-6.2549,-6.2579,-6.2593,-6.2678,-6.2639,-6.2641,-6.2665,-6.2661,-6.269,-6.2693,-6.2695,-6.2757,-6.2768,-6.2803,-6.2741,-6.2913,-6.2918,-6.2922,-6.2962,-6.2971,-6.2979,0,0,0,0,0,-6.2501,-6.2557,-6.255,-6.2563,-6.2628,-6.268,-6.2688,-6.2691,-6.2667,-6.2695,-6.2707,-6.2692,-6.2793,-6.2763,-6.2775,-6.2812,-6.2911,-6.2917,-6.2922,-6.2958,-6.297,-6.2979,0,0,0,0,0,0,-6.2528,-6.256,-6.2553,-6.2621,-6.2649,-6.2676,-6.2711,-6.2702,-6.2735,-6.273,-6.273,-6.2737,-6.2798,-6.281,-6.2777,-6.2882,-6.2848,-6.2856,-6.2872,-6.2883,-6.2891,-6.2887,-6.2745,0,0,0,0,0,-6.2542,-6.2583,-6.2609,-6.2666,-6.268,-6.2693,-6.2716,-6.2716,-6.2743,-6.2754,-6.2771,-6.2797,-6.2835,-6.2859,-6.2894,-6.2964,-6.297,-6.2996,-6.3004,-6.3011,-6.3018,-6.3057,-6.3069,-6.2943,-6.2943,-6.2942,0,0,-6.2571,-6.2594,-6.2619,-6.2672,-6.2693,-6.2735,-6.2703,-6.2748,-6.2779,-6.276,-6.2818,-6.2831,-6.286,-6.2925,-6.2954,-6.2937,-6.3055,-6.3018,-6.3023,-6.3027,-6.3064,-6.3076,-6.3087,-6.2946,-6.2946,-6.2945,0,0,-6.2646,-6.2667,-6.2718,-6.2741,-6.2774,-6.2783,-6.2795,-6.2825,-6.2834,-6.2892,-6.2879,-6.2915,-6.298,-6.3002,-6.3021,-6.3108,-6.3095,-6.3119,-6.3163,-6.3202,-6.3212,-6.322,-6.3252,-6.3264,-6.3126,-6.3126,-6.3126,0,-6.2677,-6.2741,-6.2745,-6.2792,-6.2816,-6.2804,-6.2856,-6.2877,-6.2919,-6.2936,-6.2917,-6.2999,-6.3018,-6.3088,-6.311,-6.3126,-6.314,-6.3115,-6.321,-6.3219,-6.3227,-6.3258,-6.327,-6.3129,-6.3128,-6.3128,-6.3128,0,-6.2779,-6.2824,-6.2861,-6.2905,-6.2933,-6.2982,-6.2993,-6.3021,-6.3019,-6.3029,-6.3089,-6.3111,-6.3152,-6.3168,-6.3165,-6.3239,-6.3228,-6.321,-6.3176,-6.3242,-6.3271,-6.3282,-6.3133,-6.3132,-6.3131,-6.313,0,0,-6.2871,-6.2919,-6.2933,-6.2954,-6.2991,-6.3025,-6.3074,-6.3116,-6.3141,-6.317,-6.3212,-6.3268,-6.3252,-6.3274,-6.3274,-6.3308,-6.3377,-6.3285,-6.3286,-6.3302,-6.3461,-6.3475,-6.3488,-6.3369,-6.3371,-6.3373,-6.3459,0,-6.2949,-6.3038,-6.3044,-6.3123,-6.3165,-6.3155,-6.3198,-6.3225,-6.3237,-6.3273,-6.3285,-6.3326,-6.3301,-6.3315,-6.3348,-6.3361,-6.3408,-6.3355,-6.3407,-6.3409,-6.3401,-6.3503,-6.3518,-6.3598,-6.347,-6.3472,-6.3473,0,-6.3053,-6.3089,-6.3174,-6.3207,-6.3225,-6.3264,-6.3304,-6.3339,-6.337,-6.3376,-6.3403,-6.3398,-6.3448,-6.3413,-6.3482,-6.3445,-6.3467,-6.3477,-6.348,-6.3485,-6.3445,-6.3512,-6.3623,-6.3635,-6.349,-6.3489,-6.3488,0,-6.3113,-6.3183,-6.3243,-6.3261,-6.3302,-6.3329,-6.3347,-6.3376,-6.3402,-6.3436,-6.3453,-6.3492,-6.3514,-6.3544,-6.355,-6.3524,-6.362,-6.3584,-6.3626,-6.3626,-6.3647,-6.3646,-6.3764,-6.366,-6.366,-6.3659,-6.3659,0,-6.3201,-6.3253,-6.3271,-6.3308,-6.3367,-6.3373,-6.343,-6.3446,-6.3473,-6.3512,-6.3505,-6.3542,-6.3548,-6.3586,-6.3591,-6.3648,-6.3657,-6.3663,-6.3664,-6.3665,-6.3664,-6.3679,-6.3674,-6.3663,-6.3662,-6.3661,-6.3661,0,-6.3278,-6.3292,-6.3358,-6.3392,-6.3402,-6.3443,-6.3472,-6.3507,-6.3519,-6.3569,-6.3581,-6.3599,-6.3644,-6.3654,-6.3706,-6.3709,-6.3778,-6.3772,-6.3768,-6.3768,-6.381,-6.3806,-6.3943,-6.3961,-6.3844,-6.3845,-6.3846,0,-6.3333,-6.3374,-6.3413,-6.3441,-6.3461,-6.3504,-6.3531,-6.3539,-6.3567,-6.3607,-6.3638,-6.3682,-6.3718,-6.379,-6.3807,-6.3848,-6.3844,-6.3889,-6.385,-6.385,-6.3846,-6.3844,-6.3849,-6.3896,-6.3898,-6.3899,-6.39,0,-6.343,-6.3436,-6.3477,-6.3521,-6.3554,-6.3589,-6.3621,-6.3643,-6.3655,-6.3688,-6.3735,-6.3763,-6.3819,-6.3863,-6.3904,-6.3921,-6.3913,-6.3912,-6.3924,-6.3925,-6.3922,-6.3925,-6.379,-6.3909,-6.3908,-6.3907,-6.3907,-6.3906,-6.3499,-6.3536,-6.357,-6.3616,-6.3642,-6.3673,-6.3709,-6.3727,-6.3767,-6.3814,-6.3816,-6.3868,-6.3899,-6.3954,-6.3973,-6.4013,-6.3999,-6.4016,-6.4021,-6.4025,-6.403,-6.3915,-6.402,-6.402,-6.402,-6.402,-6.402,0,-6.3597,-6.3619,-6.3662,-6.3709,-6.3746,-6.3737,-6.3773,-6.3804,-6.385,-6.3881,-6.3918,-6.3973,-6.4017,-6.4038,-6.4081,-6.4109,-6.4107,-6.412,-6.4119,-6.4123,-6.4039,-6.4025,-6.4122,-6.4122,-6.4122,-6.4122,-6.4122,-6.4122,-6.3652,-6.3714,-6.3725,-6.38,-6.3821,-6.3874,-6.3896,-6.3925,-6.395,-6.4012,-6.405,-6.4064,-6.4091,-6.4137,-6.4177,-6.4182,-6.4198,-6.4214,-6.4218,-6.4139,-6.4129,-6.4119,-6.4105,-6.4218,-6.4218,-6.4298,-6.4299,-6.4299]}]]